| time (UTC) | temp F | wind direction | speed knots | gust knots | rain 1hr in | rain 24hr in | rain mn in | humidity % | barometer mb |
| 20260906060054 | 57 | 292 | 0.0 | 1.7 | 0.00 | 0.01 | 0.01 | 82 | 1003.2 |
| 20260906055600 | 57 | 292 | 0.9 | 2.6 | 0.00 | 0.01 | 0.01 | 82 | 1003.2 |
| 20260906055008 | 57 | 292 | 1.7 | 2.6 | 0.00 | 0.01 | 0.01 | 81 | 1003.2 |
| 20260906054542 | 57 | 292 | 0.9 | 1.7 | 0.00 | 0.01 | 0.01 | 81 | 1003.2 |
| 20260906054042 | 58 | 292 | 0.9 | 2.6 | 0.00 | 0.01 | 0.01 | 81 | 1003.2 |
| 20260906053553 | 58 | 292 | 0.9 | 2.6 | 0.00 | 0.01 | 0.01 | 81 | 1003.3 |
| 20260906053030 | 58 | 296 | 0.0 | 0.9 | 0.00 | 0.01 | 0.01 | 80 | 1003.3 |
| 20260906052539 | 58 | 296 | 0.0 | 1.7 | 0.00 | 0.01 | 0.01 | 80 | 1003.4 |
| 20260906052043 | 58 | 296 | 0.0 | 1.7 | 0.00 | 0.01 | 0.01 | 80 | 1003.4 |
| 20260906051523 | 58 | 296 | 0.9 | 1.7 | 0.00 | 0.01 | 0.01 | 79 | 1003.4 |
| 20260906051024 | 58 | 296 | 0.9 | 2.6 | 0.00 | 0.01 | 0.01 | 79 | 1003.3 |
| 20260906050533 | 58 | 296 | 0.0 | 2.6 | 0.00 | 0.01 | 0.01 | 79 | 1003.4 |
| 20260906050004 | 58 | 297 | 0.9 | 2.6 | 0.00 | 0.01 | 0.01 | 79 | 1003.4 |
| 20260906045556 | 58 | 298 | 0.9 | 2.6 | 0.00 | 0.01 | 0.01 | 79 | 1003.4 |
| 20260906045043 | 58 | 281 | 0.9 | 2.6 | 0.00 | 0.01 | 0.01 | 78 | 1003.5 |
| 20260906044504 | 58 | 235 | 0.9 | 2.6 | 0.00 | 0.01 | 0.01 | 78 | 1003.5 |
| 20260906044053 | 58 | 232 | 0.0 | 2.6 | 0.00 | 0.01 | 0.01 | 77 | 1003.5 |
| 20260906043542 | 58 | 232 | 0.9 | 2.6 | 0.00 | 0.01 | 0.01 | 77 | 1003.5 |
| 20260906043015 | 59 | 223 | 1.7 | 2.6 | 0.00 | 0.01 | 0.01 | 77 | 1003.6 |
| 20260906042602 | 59 | 226 | 0.9 | 2.6 | 0.00 | 0.01 | 0.01 | 76 | 1003.6 |
| 20260906042049 | 59 | 294 | 0.0 | 4.3 | 0.00 | 0.01 | 0.01 | 76 | 1003.7 |
| 20260906041058 | 59 | 258 | 0.0 | 0.9 | 0.00 | 0.01 | 0.01 | 76 | 1003.6 |
| 20260906040609 | 59 | 258 | 0.0 | 1.7 | 0.00 | 0.01 | 0.01 | 75 | 1003.5 |
| 20260906040042 | 59 | 258 | 0.0 | 1.7 | 0.00 | 0.01 | 0.01 | 74 | 1003.4 |
| 20260906035551 | 59 | 258 | 0.0 | 1.7 | 0.00 | 0.01 | 0.01 | 74 | 1003.4 |
| 20260906035056 | 59 | 258 | 0.9 | 1.7 | 0.00 | 0.01 | 0.01 | 74 | 1003.3 |
| 20260906034535 | 60 | 258 | 0.9 | 1.7 | 0.00 | 0.01 | 0.01 | 73 | 1003.4 |
| 20260906034035 | 60 | 258 | 0.9 | 2.6 | 0.00 | 0.01 | 0.01 | 73 | 1003.3 |
| 20260906033544 | 60 | 258 | 0.9 | 2.6 | 0.00 | 0.01 | 0.01 | 73 | 1003.2 |
| 20260906033010 | 60 | 258 | 0.9 | 2.6 | 0.00 | 0.01 | 0.01 | 73 | 1003.2 |
| 20260906032526 | 61 | 258 | 0.9 | 2.6 | 0.00 | 0.01 | 0.01 | 74 | 1003.1 |
| 20260906032032 | 61 | 258 | 0.9 | 2.6 | 0.00 | 0.01 | 0.01 | 73 | 1003.2 |
| 20260906031600 | 61 | 258 | 0.0 | 1.7 | 0.00 | 0.01 | 0.01 | 72 | 1003.1 |
| 20260906031007 | 61 | 258 | 0.0 | 2.6 | 0.00 | 0.01 | 0.01 | 71 | 1003.1 |
| 20260906030514 | 61 | 258 | 0.9 | 2.6 | 0.00 | 0.01 | 0.01 | 71 | 1003.0 |
| 20260906030054 | 62 | 258 | 0.9 | 2.6 | 0.00 | 0.01 | 0.01 | 72 | 1003.0 |
| 20260906025600 | 62 | 258 | 0.9 | 2.6 | 0.00 | 0.01 | 0.01 | 71 | 1003.0 |
| 20260906025020 | 62 | 258 | 0.9 | 2.6 | 0.00 | 0.01 | 0.01 | 70 | 1003.0 |
| 20260906024607 | 62 | 258 | 0.9 | 2.6 | 0.00 | 0.01 | 0.01 | 69 | 1003.0 |
| 20260906024055 | 63 | 258 | 0.0 | 1.7 | 0.00 | 0.01 | 0.01 | 69 | 1003.0 |
| 20260906023558 | 63 | 258 | 0.9 | 2.6 | 0.00 | 0.01 | 0.01 | 69 | 1003.0 |
| 20260906023038 | 63 | 258 | 0.9 | 3.5 | 0.00 | 0.01 | 0.01 | 69 | 1003.0 |
| 20260906022547 | 63 | 258 | 0.9 | 3.5 | 0.00 | 0.01 | 0.01 | 68 | 1003.0 |
| 20260906022052 | 63 | 258 | 1.7 | 3.5 | 0.00 | 0.01 | 0.01 | 68 | 1003.1 |
| 20260906021506 | 64 | 258 | 0.9 | 3.5 | 0.00 | 0.01 | 0.01 | 68 | 1003.0 |
| 20260906021023 | 64 | 263 | 0.9 | 3.5 | 0.00 | 0.01 | 0.01 | 67 | 1003.1 |
| 20260906020530 | 64 | 264 | 0.9 | 2.6 | 0.00 | 0.01 | 0.01 | 66 | 1003.1 |
| 20260906020106 | 64 | 264 | 0.0 | 0.0 | 0.00 | 0.01 | 0.01 | 66 | 1003.1 |
| 20260906015510 | 65 | 264 | 0.0 | 1.7 | 0.00 | 0.01 | 0.01 | 65 | 1003.1 |
| 20260906015022 | 65 | 264 | 0.0 | 1.7 | 0.00 | 0.01 | 0.01 | 64 | 1003.2 |
| 20260906014556 | 65 | 264 | 0.0 | 2.6 | 0.00 | 0.01 | 0.01 | 64 | 1003.1 |
| 20260906014007 | 66 | 264 | 0.9 | 2.6 | 0.00 | 0.01 | 0.01 | 63 | 1003.2 |
| 20260906013517 | 66 | 264 | 0.9 | 2.6 | 0.00 | 0.01 | 0.01 | 63 | 1003.2 |
| 20260906013036 | 67 | 270 | 0.9 | 1.7 | 0.00 | 0.01 | 0.01 | 63 | 1003.3 |
| 20260906012546 | 67 | 270 | 0.0 | 2.6 | 0.00 | 0.01 | 0.01 | 62 | 1003.2 |
| 20260906012049 | 67 | 270 | 0.9 | 3.5 | 0.00 | 0.01 | 0.01 | 61 | 1003.2 |
| 20260906011518 | 68 | 305 | 0.9 | 3.5 | 0.00 | 0.01 | 0.01 | 60 | 1003.2 |
| 20260906011034 | 68 | 283 | 0.9 | 4.3 | 0.00 | 0.01 | 0.01 | 58 | 1003.1 |
| 20260906010539 | 68 | 292 | 0.9 | 4.3 | 0.00 | 0.01 | 0.01 | 59 | 1003.2 |
| 20260906010027 | 68 | 302 | 2.6 | 4.3 | 0.00 | 0.01 | 0.01 | 59 | 1003.1 |
| 20260906005527 | 69 | 323 | 0.9 | 5.2 | 0.00 | 0.01 | 0.01 | 62 | 1003.0 |
| 20260906005034 | 69 | 284 | 2.6 | 5.2 | 0.00 | 0.01 | 0.01 | 64 | 1003.0 |
| 20260906004502 | 69 | 9 | 0.9 | 5.2 | 0.00 | 0.01 | 0.01 | 60 | 1003.0 |
| 20260906004015 | 69 | 15 | 1.7 | 5.2 | 0.00 | 0.01 | 0.01 | 58 | 1003.1 |
| 20260906003522 | 69 | 44 | 3.5 | 5.2 | 0.00 | 0.01 | 0.01 | 59 | 1003.2 |
| 20260906003052 | 69 | 67 | 1.7 | 5.2 | 0.00 | 0.01 | 0.01 | 56 | 1003.2 |
| 20260906002557 | 69 | 42 | 2.6 | 3.5 | 0.00 | 0.01 | 0.01 | 62 | 1003.1 |
| 20260906002005 | 69 | 51 | 0.0 | 2.6 | 0.00 | 0.01 | 0.01 | 60 | 1003.3 |
| 20260906001538 | 69 | 54 | 0.0 | 1.7 | 0.00 | 0.01 | 0.01 | 59 | 1003.2 |
| 20260906001032 | 69 | 40 | 0.0 | 1.7 | 0.00 | 0.01 | 0.01 | 60 | 1003.2 |
| 20260906000539 | 68 | 34 | 0.9 | 3.5 | 0.00 | 0.01 | 0.01 | 59 | 1003.2 |
| 20260906000004 | 68 | 34 | 1.7 | 3.5 | 0.00 | 0.02 | 0.01 | 60 | 1003.1 |
| 20260905235518 | 68 | 45 | 1.7 | 3.5 | 0.00 | 0.02 | 0.01 | 61 | 1003.0 |
| 20260905235025 | 68 | 343 | 1.7 | 3.5 | 0.00 | 0.02 | 0.01 | 61 | 1003.2 |
| 20260905234556 | 68 | 332 | 0.0 | 2.6 | 0.00 | 0.02 | 0.01 | 59 | 1003.2 |
| 20260905234102 | 68 | 332 | 0.9 | 2.6 | 0.00 | 0.02 | 0.01 | 65 | 1003.2 |
| 20260905233502 | 68 | 241 | 0.0 | 3.5 | 0.00 | 0.02 | 0.01 | 61 | 1003.2 |
| 20260905233044 | 68 | 236 | 0.9 | 4.3 | 0.00 | 0.02 | 0.01 | 57 | 1003.3 |
| 20260905232551 | 67 | 325 | 1.7 | 4.3 | 0.00 | 0.02 | 0.01 | 60 | 1003.2 |
| 20260905232057 | 67 | 54 | 0.9 | 3.5 | 0.00 | 0.02 | 0.01 | 61 | 1003.2 |
| 20260905231541 | 68 | 322 | 0.9 | 2.6 | 0.00 | 0.02 | 0.01 | 58 | 1003.3 |
| 20260905231039 | 69 | 133 | 0.0 | 1.7 | 0.00 | 0.02 | 0.01 | 59 | 1003.4 |
| 20260905230549 | 69 | 133 | 0.9 | 5.2 | 0.00 | 0.02 | 0.01 | 57 | 1003.4 |
| 20260905230108 | 69 | 139 | 0.9 | 5.2 | 0.00 | 0.02 | 0.01 | 58 | 1003.5 |
| 20260905225505 | 69 | 190 | 0.9 | 3.5 | 0.00 | 0.02 | 0.01 | 58 | 1003.6 |
| 20260905225013 | 69 | 26 | 0.9 | 3.5 | 0.00 | 0.02 | 0.01 | 57 | 1003.5 |
| 20260905224550 | 70 | 45 | 0.9 | 3.5 | 0.00 | 0.02 | 0.01 | 58 | 1003.5 |
| 20260905224056 | 69 | 202 | 0.0 | 8.7 | 0.00 | 0.02 | 0.01 | 60 | 1003.6 |
| 20260905223604 | 69 | 217 | 0.9 | 8.7 | 0.00 | 0.02 | 0.01 | 61 | 1003.6 |
| 20260905223043 | 68 | 61 | 1.7 | 5.2 | 0.00 | 0.02 | 0.01 | 65 | 1003.7 |
| 20260905222544 | 68 | 355 | 3.5 | 5.2 | 0.00 | 0.02 | 0.01 | 66 | 1003.7 |
| 20260905222049 | 68 | 37 | 2.6 | 3.5 | 0.00 | 0.02 | 0.01 | 63 | 1003.8 |
| 20260905221523 | 68 | 63 | 0.9 | 2.6 | 0.00 | 0.02 | 0.01 | 68 | 1003.9 |
| 20260905221034 | 68 | 279 | 0.9 | 2.6 | 0.00 | 0.02 | 0.01 | 67 | 1003.9 |
| 20260905220537 | 68 | 265 | 0.9 | 2.6 | 0.00 | 0.02 | 0.01 | 64 | 1003.9 |
| 20260905220003 | 68 | 57 | 0.0 | 2.6 | 0.00 | 0.02 | 0.01 | 62 | 1003.9 |
| 20260905215523 | 68 | 57 | 0.9 | 2.6 | 0.00 | 0.02 | 0.01 | 63 | 1003.9 |
| 20260905215027 | 68 | 70 | 0.9 | 2.6 | 0.00 | 0.02 | 0.01 | 63 | 1003.9 |
| 20260905214555 | 67 | 70 | 0.9 | 2.6 | 0.00 | 0.02 | 0.01 | 65 | 1004.0 |
| 20260905214001 | 67 | 62 | 0.9 | 2.6 | 0.00 | 0.02 | 0.01 | 66 | 1004.0 |
| 20260905213510 | 67 | 64 | 0.0 | 2.6 | 0.00 | 0.02 | 0.01 | 68 | 1004.0 |
| 20260905213054 | 67 | 55 | 0.0 | 5.2 | 0.00 | 0.02 | 0.01 | 69 | 1004.0 |
| 20260905212555 | 66 | 65 | 1.7 | 5.2 | 0.00 | 0.02 | 0.01 | 66 | 1004.2 |
| 20260905212005 | 66 | 288 | 0.0 | 2.6 | 0.00 | 0.02 | 0.01 | 68 | 1004.1 |
| 20260905211545 | 66 | 298 | 0.9 | 3.5 | 0.00 | 0.02 | 0.01 | 70 | 1004.2 |
| 20260905211047 | 66 | 312 | 0.9 | 5.2 | 0.00 | 0.02 | 0.01 | 66 | 1004.2 |
| 20260905210556 | 66 | 269 | 1.7 | 5.2 | 0.00 | 0.02 | 0.01 | 66 | 1004.2 |
| 20260905210007 | 67 | 53 | 2.6 | 3.5 | 0.00 | 0.02 | 0.01 | 71 | 1004.3 |
| 20260905205513 | 66 | 5 | 0.0 | 4.3 | 0.00 | 0.02 | 0.01 | 69 | 1004.3 |
| 20260905205021 | 67 | 12 | 0.9 | 4.3 | 0.00 | 0.02 | 0.01 | 69 | 1004.3 |
| 20260905204607 | 67 | 51 | 2.6 | 4.3 | 0.00 | 0.02 | 0.01 | 69 | 1004.3 |
| 20260905204016 | 67 | 39 | 0.9 | 3.5 | 0.00 | 0.02 | 0.01 | 72 | 1004.3 |
| 20260905203522 | 66 | 30 | 0.9 | 3.5 | 0.00 | 0.02 | 0.01 | 68 | 1004.4 |
| 20260905203055 | 65 | 105 | 0.0 | 2.6 | 0.00 | 0.02 | 0.01 | 71 | 1004.4 |
| 20260905202555 | 65 | 13 | 0.0 | 3.5 | 0.00 | 0.02 | 0.01 | 68 | 1004.6 |
| 20260905202103 | 64 | 14 | 1.7 | 3.5 | 0.00 | 0.02 | 0.01 | 70 | 1004.5 |
| 20260905201538 | 64 | 311 | 0.0 | 2.6 | 0.00 | 0.02 | 0.01 | 73 | 1004.5 |
| 20260905201029 | 65 | 302 | 0.9 | 2.6 | 0.00 | 0.02 | 0.01 | 74 | 1004.5 |
| 20260905200540 | 65 | 259 | 0.9 | 2.6 | 0.00 | 0.02 | 0.01 | 67 | 1004.5 |
| 20260905200007 | 65 | 254 | 0.9 | 2.6 | 0.00 | 0.02 | 0.01 | 67 | 1004.6 |
| 20260905195526 | 65 | 182 | 0.9 | 2.6 | 0.00 | 0.02 | 0.01 | 69 | 1004.6 |
| 20260905195030 | 65 | 180 | 0.0 | 1.7 | 0.00 | 0.02 | 0.01 | 70 | 1004.6 |
| 20260905194557 | 65 | 180 | 0.0 | 1.7 | 0.00 | 0.02 | 0.01 | 69 | 1004.6 |
| 20260905194003 | 65 | 180 | 0.0 | 1.7 | 0.00 | 0.02 | 0.01 | 68 | 1004.8 |
| 20260905193512 | 64 | 180 | 0.0 | 2.6 | 0.00 | 0.02 | 0.01 | 69 | 1004.7 |
| 20260905193053 | 64 | 178 | 0.9 | 3.5 | 0.00 | 0.02 | 0.01 | 69 | 1004.7 |
| 20260905192600 | 64 | 137 | 0.9 | 3.5 | 0.00 | 0.02 | 0.01 | 70 | 1004.8 |
| 20260905192002 | 64 | 204 | 0.0 | 2.6 | 0.00 | 0.02 | 0.01 | 73 | 1004.9 |
| 20260905191539 | 64 | 203 | 0.9 | 3.5 | 0.00 | 0.02 | 0.01 | 69 | 1004.8 |
| 20260905191045 | 65 | 184 | 1.7 | 3.5 | 0.00 | 0.02 | 0.01 | 68 | 1004.8 |
| 20260905190551 | 64 | 180 | 0.9 | 2.6 | 0.00 | 0.02 | 0.01 | 70 | 1004.8 |
| 20260905190025 | 64 | 84 | 0.9 | 2.6 | 0.00 | 0.02 | 0.01 | 75 | 1004.9 |
| 20260905185531 | 63 | 335 | 0.0 | 2.6 | 0.00 | 0.02 | 0.01 | 76 | 1004.9 |
| 20260905185037 | 63 | 333 | 0.9 | 2.6 | 0.00 | 0.02 | 0.01 | 74 | 1005.0 |
| 20260905184503 | 63 | 360 | 0.9 | 3.5 | 0.00 | 0.02 | 0.01 | 75 | 1005.0 |
| 20260905184009 | 63 | 178 | 0.9 | 3.5 | 0.00 | 0.02 | 0.01 | 76 | 1005.1 |
| 20260905183515 | 63 | 344 | 0.0 | 1.7 | 0.00 | 0.02 | 0.01 | 81 | 1005.1 |
| 20260905183108 | 62 | 248 | 0.0 | 1.7 | 0.00 | 0.02 | 0.01 | 79 | 1005.1 |
| 20260905182557 | 62 | 249 | 0.9 | 2.6 | 0.00 | 0.02 | 0.01 | 80 | 1005.1 |
| 20260905182105 | 61 | 241 | 0.0 | 2.6 | 0.00 | 0.02 | 0.01 | 82 | 1005.2 |
| 20260905181539 | 61 | 267 | 0.9 | 2.6 | 0.00 | 0.02 | 0.01 | 84 | 1005.2 |
| 20260905181045 | 60 | 335 | 0.0 | 2.6 | 0.00 | 0.02 | 0.01 | 84 | 1005.2 |
| 20260905180553 | 60 | 335 | 0.0 | 2.6 | 0.00 | 0.02 | 0.01 | 85 | 1005.2 |
| 20260905180027 | 60 | 271 | 0.9 | 3.5 | 0.00 | 0.02 | 0.01 | 86 | 1005.2 |
| 20260905175535 | 60 | 286 | 1.7 | 3.5 | 0.00 | 0.02 | 0.01 | 87 | 1005.4 |
| 20260905175040 | 60 | 264 | 0.9 | 3.5 | 0.00 | 0.02 | 0.01 | 87 | 1005.3 |
| 20260905174505 | 59 | 282 | 1.7 | 3.5 | 0.00 | 0.02 | 0.01 | 87 | 1005.4 |
| 20260905174013 | 59 | 330 | 0.0 | 2.6 | 0.00 | 0.02 | 0.01 | 87 | 1005.3 |
| 20260905173527 | 59 | 332 | 0.9 | 1.7 | 0.00 | 0.02 | 0.01 | 87 | 1005.2 |
| 20260905173043 | 59 | 332 | 0.9 | 1.7 | 0.00 | 0.02 | 0.01 | 88 | 1005.3 |
| 20260905172550 | 59 | 332 | 0.0 | 1.7 | 0.00 | 0.02 | 0.01 | 88 | 1005.4 |
| 20260905172055 | 58 | 332 | 0.0 | 1.7 | 0.00 | 0.02 | 0.01 | 89 | 1005.4 |
| 20260905171533 | 58 | 332 | 0.0 | 3.5 | 0.00 | 0.02 | 0.01 | 89 | 1005.4 |
| 20260905171040 | 58 | 332 | 1.7 | 4.3 | 0.00 | 0.02 | 0.01 | 89 | 1005.4 |
| 20260905170547 | 58 | 65 | 0.0 | 4.3 | 0.00 | 0.02 | 0.01 | 89 | 1005.4 |
| 20260905170022 | 58 | 51 | 1.7 | 3.5 | 0.00 | 0.02 | 0.01 | 90 | 1005.4 |
| 20260905165526 | 57 | 37 | 0.9 | 3.5 | 0.00 | 0.02 | 0.01 | 90 | 1005.5 |
| 20260905165033 | 57 | 30 | 0.0 | 2.6 | 0.00 | 0.02 | 0.01 | 90 | 1005.4 |
| 20260905164504 | 57 | 18 | 0.9 | 2.6 | 0.00 | 0.02 | 0.01 | 90 | 1005.5 |
| 20260905164013 | 57 | 15 | 1.7 | 3.5 | 0.00 | 0.02 | 0.01 | 90 | 1005.4 |
| 20260905163523 | 57 | 67 | 1.7 | 3.5 | 0.00 | 0.02 | 0.01 | 90 | 1005.5 |
| 20260905163059 | 57 | 13 | 0.9 | 2.6 | 0.00 | 0.02 | 0.01 | 90 | 1005.5 |
| 20260905162519 | 57 | 9 | 0.9 | 2.6 | 0.00 | 0.02 | 0.01 | 90 | 1005.5 |
| 20260905162012 | 57 | 5 | 0.9 | 2.6 | 0.00 | 0.02 | 0.01 | 90 | 1005.4 |
| 20260905161547 | 57 | 41 | 0.0 | 3.5 | 0.00 | 0.02 | 0.01 | 90 | 1005.4 |
| 20260905161058 | 57 | 41 | 0.0 | 3.5 | 0.00 | 0.02 | 0.01 | 91 | 1005.4 |
| 20260905160506 | 57 | 39 | 2.6 | 3.5 | 0.00 | 0.02 | 0.01 | 91 | 1005.2 |
| 20260905160024 | 56 | 14 | 1.7 | 3.5 | 0.00 | 0.03 | 0.01 | 91 | 1005.3 |
| 20260905155529 | 56 | 14 | 0.9 | 3.5 | 0.00 | 0.03 | 0.01 | 91 | 1005.4 |
| 20260905155036 | 56 | 24 | 1.7 | 3.5 | 0.00 | 0.03 | 0.01 | 91 | 1005.4 |
| 20260905154544 | 56 | 63 | 0.0 | 2.6 | 0.00 | 0.03 | 0.01 | 91 | 1005.4 |
| 20260905154052 | 56 | 63 | 0.9 | 2.6 | 0.00 | 0.03 | 0.01 | 91 | 1005.4 |
| 20260905153556 | 55 | 86 | 0.0 | 2.6 | 0.00 | 0.03 | 0.01 | 91 | 1005.3 |
| 20260905153028 | 55 | 115 | 0.0 | 0.0 | 0.00 | 0.03 | 0.01 | 91 | 1005.3 |
| 20260905152534 | 55 | 115 | 0.0 | 0.0 | 0.00 | 0.03 | 0.01 | 91 | 1005.4 |
| 20260905152043 | 55 | 115 | 0.0 | 0.0 | 0.00 | 0.03 | 0.01 | 91 | 1005.4 |
| 20260905151607 | 55 | 115 | 0.0 | 0.0 | 0.00 | 0.03 | 0.01 | 91 | 1005.3 |
| 20260905151018 | 55 | 115 | 0.0 | 0.0 | 0.00 | 0.03 | 0.01 | 91 | 1005.4 |
| 20260905150524 | 54 | 115 | 0.0 | 0.0 | 0.00 | 0.03 | 0.01 | 91 | 1005.3 |
| 20260905150054 | 54 | 115 | 0.0 | 0.0 | 0.00 | 0.03 | 0.01 | 91 | 1005.4 |
| 20260905145553 | 54 | 115 | 0.0 | 0.0 | 0.00 | 0.03 | 0.01 | 91 | 1005.4 |
| 20260905145058 | 54 | 115 | 0.0 | 0.0 | 0.00 | 0.03 | 0.01 | 90 | 1005.4 |
| 20260905144535 | 54 | 115 | 0.0 | 0.0 | 0.00 | 0.03 | 0.01 | 90 | 1005.4 |
| 20260905144032 | 54 | 115 | 0.0 | 0.0 | 0.00 | 0.03 | 0.01 | 90 | 1005.5 |
| 20260905143542 | 54 | 115 | 0.0 | 0.0 | 0.00 | 0.03 | 0.01 | 90 | 1005.5 |
| 20260905143055 | 54 | 115 | 0.0 | 0.0 | 0.00 | 0.03 | 0.01 | 90 | 1005.4 |
| 20260905142558 | 54 | 115 | 0.0 | 0.0 | 0.00 | 0.03 | 0.01 | 90 | 1005.2 |
| 20260905142056 | 53 | 115 | 0.0 | 0.0 | 0.00 | 0.03 | 0.01 | 90 | 1005.3 |
| 20260905141509 | 53 | 115 | 0.0 | 0.0 | 0.00 | 0.03 | 0.01 | 90 | 1005.1 |
| 20260905141016 | 53 | 115 | 0.0 | 0.0 | 0.00 | 0.03 | 0.01 | 90 | 1005.1 |
| 20260905140524 | 53 | 115 | 0.0 | 0.0 | 0.00 | 0.03 | 0.01 | 90 | 1005.1 |
| 20260905140046 | 53 | 115 | 0.0 | 0.0 | 0.00 | 0.03 | 0.01 | 90 | 1005.1 |
| 20260905135544 | 53 | 115 | 0.0 | 0.0 | 0.00 | 0.03 | 0.01 | 90 | 1005.1 |
| 20260905135048 | 53 | 115 | 0.0 | 0.0 | 0.00 | 0.03 | 0.01 | 90 | 1005.0 |
| 20260905134527 | 53 | 115 | 0.0 | 0.0 | 0.00 | 0.03 | 0.01 | 90 | 1005.1 |
| 20260905134026 | 53 | 115 | 0.0 | 0.0 | 0.00 | 0.03 | 0.01 | 90 | 1005.1 |
| 20260905133534 | 53 | 115 | 0.0 | 0.0 | 0.00 | 0.03 | 0.01 | 90 | 1005.0 |
| 20260905133057 | 53 | 115 | 0.0 | 0.0 | 0.00 | 0.03 | 0.01 | 90 | 1005.1 |
| 20260905132502 | 53 | 115 | 0.0 | 0.0 | 0.00 | 0.03 | 0.01 | 90 | 1004.9 |
| 20260905132021 | 53 | 115 | 0.0 | 0.0 | 0.00 | 0.03 | 0.01 | 90 | 1005.0 |
| 20260905131554 | 53 | 115 | 0.0 | 0.0 | 0.00 | 0.03 | 0.01 | 90 | 1005.0 |
| 20260905131054 | 53 | 115 | 0.0 | 0.0 | 0.00 | 0.03 | 0.01 | 90 | 1005.0 |
| 20260905130601 | 53 | 115 | 0.0 | 0.0 | 0.00 | 0.03 | 0.01 | 90 | 1004.9 |
| 20260905130010 | 53 | 115 | 0.0 | 0.0 | 0.00 | 0.04 | 0.01 | 90 | 1004.8 |
| 20260905125512 | 53 | 115 | 0.0 | 0.0 | 0.00 | 0.04 | 0.01 | 90 | 1004.9 |
| 20260905125021 | 53 | 115 | 0.0 | 0.0 | 0.00 | 0.04 | 0.01 | 90 | 1004.8 |
| 20260905124557 | 53 | 115 | 0.0 | 0.0 | 0.00 | 0.04 | 0.01 | 90 | 1004.8 |
| 20260905124054 | 53 | 115 | 0.0 | 0.0 | 0.00 | 0.04 | 0.01 | 90 | 1004.8 |
| 20260905123600 | 53 | 115 | 0.0 | 0.0 | 0.00 | 0.04 | 0.01 | 90 | 1004.8 |
| 20260905123034 | 53 | 115 | 0.0 | 0.0 | 0.00 | 0.04 | 0.01 | 90 | 1004.7 |
| 20260905122540 | 53 | 115 | 0.0 | 0.0 | 0.00 | 0.04 | 0.01 | 90 | 1004.6 |
| 20260905122041 | 53 | 115 | 0.0 | 0.0 | 0.00 | 0.04 | 0.01 | 90 | 1004.7 |
| 20260905121508 | 53 | 115 | 0.0 | 0.0 | 0.00 | 0.04 | 0.01 | 90 | 1004.6 |
| 20260905121026 | 53 | 115 | 0.0 | 0.0 | 0.00 | 0.04 | 0.01 | 90 | 1004.6 |
| 20260905120523 | 53 | 115 | 0.0 | 0.0 | 0.00 | 0.04 | 0.01 | 90 | 1004.5 |
| 20260905120048 | 53 | 115 | 0.0 | 0.0 | 0.00 | 0.09 | 0.01 | 90 | 1004.6 |
| 20260905115558 | 53 | 115 | 0.0 | 0.0 | 0.00 | 0.09 | 0.01 | 90 | 1004.6 |
| 20260905115104 | 53 | 115 | 0.0 | 0.0 | 0.00 | 0.09 | 0.01 | 90 | 1004.7 |
| 20260905114542 | 53 | 115 | 0.0 | 0.0 | 0.00 | 0.09 | 0.01 | 90 | 1004.6 |
| 20260905114042 | 53 | 115 | 0.0 | 0.0 | 0.00 | 0.09 | 0.01 | 90 | 1004.6 |
| 20260905113552 | 53 | 115 | 0.0 | 0.0 | 0.00 | 0.09 | 0.01 | 90 | 1004.6 |
| 20260905113020 | 53 | 115 | 0.0 | 0.0 | 0.00 | 0.09 | 0.01 | 90 | 1004.6 |
| 20260905112529 | 53 | 115 | 0.0 | 0.0 | 0.00 | 0.09 | 0.01 | 90 | 1004.6 |
| 20260905112034 | 53 | 115 | 0.0 | 0.0 | 0.00 | 0.09 | 0.01 | 90 | 1004.5 |
| 20260905111554 | 53 | 115 | 0.0 | 0.0 | 0.00 | 0.09 | 0.01 | 90 | 1004.5 |
| 20260905111056 | 53 | 115 | 0.0 | 0.0 | 0.00 | 0.09 | 0.01 | 90 | 1004.4 |
| 20260905110515 | 53 | 115 | 0.0 | 0.0 | 0.00 | 0.09 | 0.01 | 90 | 1004.5 |
| 20260905110048 | 53 | 115 | 0.0 | 0.0 | 0.00 | 0.11 | 0.01 | 90 | 1004.4 |
| 20260905105548 | 53 | 115 | 0.0 | 0.0 | 0.00 | 0.11 | 0.01 | 90 | 1004.5 |
| 20260905105056 | 53 | 115 | 0.0 | 0.0 | 0.00 | 0.11 | 0.01 | 90 | 1004.4 |
| 20260905104522 | 53 | 115 | 0.0 | 0.0 | 0.00 | 0.11 | 0.01 | 90 | 1004.5 |
| 20260905104019 | 53 | 115 | 0.0 | 0.0 | 0.00 | 0.11 | 0.01 | 90 | 1004.6 |
| 20260905103530 | 53 | 115 | 0.0 | 0.0 | 0.00 | 0.11 | 0.01 | 90 | 1004.6 |
| 20260905103059 | 53 | 115 | 0.0 | 0.0 | 0.00 | 0.11 | 0.01 | 90 | 1004.5 |
| 20260905102559 | 53 | 115 | 0.0 | 0.0 | 0.00 | 0.11 | 0.01 | 90 | 1004.6 |
| 20260905102002 | 53 | 115 | 0.0 | 0.0 | 0.00 | 0.11 | 0.01 | 90 | 1004.6 |
| 20260905101540 | 54 | 115 | 0.0 | 0.0 | 0.00 | 0.11 | 0.01 | 90 | 1004.7 |
| 20260905101045 | 53 | 115 | 0.0 | 0.0 | 0.00 | 0.11 | 0.01 | 90 | 1004.7 |
| 20260905100546 | 54 | 115 | 0.0 | 0.0 | 0.00 | 0.11 | 0.01 | 90 | 1004.7 |
| 20260905100015 | 54 | 115 | 0.0 | 0.0 | 0.00 | 0.11 | 0.01 | 90 | 1004.7 |
| 20260905095528 | 54 | 115 | 0.0 | 0.0 | 0.01 | 0.11 | 0.01 | 90 | 1004.7 |
| 20260905095032 | 54 | 115 | 0.0 | 0.0 | 0.01 | 0.11 | 0.01 | 90 | 1004.6 |
| 20260905094602 | 54 | 115 | 0.0 | 0.0 | 0.01 | 0.11 | 0.01 | 90 | 1004.6 |
| 20260905094006 | 54 | 115 | 0.0 | 0.0 | 0.01 | 0.11 | 0.01 | 90 | 1004.6 |
| 20260905093511 | 54 | 115 | 0.0 | 0.0 | 0.01 | 0.11 | 0.01 | 90 | 1004.6 |
| 20260905093028 | 54 | 115 | 0.0 | 0.0 | 0.01 | 0.11 | 0.01 | 90 | 1004.6 |
| 20260905092534 | 53 | 115 | 0.0 | 0.0 | 0.01 | 0.11 | 0.01 | 90 | 1004.5 |
| 20260905092044 | 53 | 115 | 0.0 | 0.0 | 0.01 | 0.11 | 0.01 | 90 | 1004.5 |
| 20260905091508 | 53 | 115 | 0.0 | 0.0 | 0.01 | 0.11 | 0.01 | 90 | 1004.5 |
| 20260905091024 | 53 | 115 | 0.0 | 0.0 | 0.01 | 0.11 | 0.01 | 90 | 1004.4 |
| 20260905090531 | 53 | 115 | 0.0 | 0.0 | 0.01 | 0.11 | 0.01 | 90 | 1004.4 |
| 20260905090131 | 53 | 115 | 0.0 | 0.0 | 0.01 | 0.11 | 0.01 | 90 | 1004.4 |
| 20260905085504 | 53 | 115 | 0.0 | 0.0 | 0.00 | 0.10 | 0.00 | 90 | 1004.3 |
| 20260905085019 | 53 | 115 | 0.0 | 0.0 | 0.00 | 0.10 | 0.00 | 90 | 1004.4 |
| 20260905084538 | 53 | 115 | 0.0 | 0.0 | 0.00 | 0.10 | 0.00 | 90 | 1004.4 |
| 20260905084041 | 53 | 115 | 0.0 | 0.0 | 0.00 | 0.10 | 0.00 | 89 | 1004.3 |
| 20260905083549 | 53 | 115 | 0.0 | 0.0 | 0.00 | 0.10 | 0.00 | 89 | 1004.2 |
| 20260905083028 | 53 | 115 | 0.0 | 0.0 | 0.00 | 0.10 | 0.00 | 89 | 1004.2 |
| 20260905082528 | 53 | 115 | 0.0 | 0.0 | 0.00 | 0.10 | 0.00 | 89 | 1004.2 |
| 20260905082034 | 53 | 115 | 0.0 | 0.0 | 0.00 | 0.10 | 0.00 | 89 | 1004.1 |
| 20260905081600 | 53 | 115 | 0.0 | 0.0 | 0.00 | 0.10 | 0.00 | 89 | 1004.1 |
| 20260905081112 | 53 | 115 | 0.0 | 0.0 | 0.00 | 0.10 | 0.00 | 89 | 1004.1 |
| 20260905080514 | 52 | 115 | 0.0 | 0.0 | 0.00 | 0.10 | 0.00 | 89 | 1004.0 |
| 20260905080026 | 52 | 115 | 0.0 | 0.0 | 0.00 | 0.10 | 0.00 | 89 | 1004.1 |
| 20260905075536 | 52 | 115 | 0.0 | 0.0 | 0.00 | 0.10 | 0.00 | 89 | 1004.1 |
| 20260905075038 | 52 | 115 | 0.0 | 0.0 | 0.00 | 0.10 | 0.00 | 89 | 1004.1 |
| 20260905074509 | 52 | 115 | 0.0 | 0.0 | 0.00 | 0.10 | 0.00 | 89 | 1004.1 |
| 20260905074013 | 52 | 115 | 0.0 | 0.0 | 0.00 | 0.10 | 0.00 | 89 | 1004.0 |
| 20260905073528 | 52 | 115 | 0.0 | 0.0 | 0.00 | 0.10 | 0.00 | 89 | 1004.0 |
| 20260905073039 | 52 | 115 | 0.0 | 0.0 | 0.00 | 0.10 | 0.00 | 89 | 1004.0 |
| 20260905072545 | 52 | 115 | 0.0 | 0.0 | 0.00 | 0.10 | 0.00 | 89 | 1003.9 |
| 20260905072051 | 52 | 115 | 0.0 | 0.0 | 0.00 | 0.10 | 0.00 | 89 | 1004.0 |
| 20260905071520 | 52 | 115 | 0.0 | 0.0 | 0.00 | 0.10 | 0.00 | 89 | 1004.0 |
| 20260905071027 | 52 | 115 | 0.0 | 0.0 | 0.00 | 0.10 | 0.00 | 89 | 1004.0 |
| 20260905070531 | 52 | 115 | 0.0 | 0.0 | 0.00 | 0.10 | 0.00 | 89 | 1004.1 |
| 20260905070047 | 52 | 115 | 0.0 | 0.0 | 0.00 | 0.10 | 0.10 | 89 | 1004.0 |
| 20260905065544 | 52 | 115 | 0.0 | 0.0 | 0.00 | 0.10 | 0.10 | 88 | 1003.9 |
| 20260905065046 | 52 | 115 | 0.0 | 0.0 | 0.00 | 0.10 | 0.10 | 88 | 1003.8 |
| 20260905064558 | 52 | 115 | 0.0 | 0.0 | 0.00 | 0.10 | 0.10 | 88 | 1003.8 |
| 20260905064101 | 52 | 115 | 0.0 | 0.0 | 0.00 | 0.10 | 0.10 | 88 | 1003.8 |
| 20260905063506 | 52 | 115 | 0.0 | 0.9 | 0.00 | 0.10 | 0.10 | 88 | 1003.6 |
| 20260905063040 | 52 | 115 | 0.0 | 1.7 | 0.00 | 0.10 | 0.10 | 88 | 1003.7 |
| 20260905062545 | 52 | 115 | 0.9 | 2.6 | 0.00 | 0.10 | 0.10 | 88 | 1003.7 |
| 20260905062050 | 52 | 115 | 0.9 | 2.6 | 0.00 | 0.10 | 0.10 | 88 | 1003.5 |
| 20260905061537 | 52 | 115 | 0.9 | 2.6 | 0.00 | 0.10 | 0.10 | 88 | 1003.5 |
| 20260905061026 | 52 | 115 | 0.9 | 2.6 | 0.00 | 0.10 | 0.10 | 88 | 1003.5 |
| 20260905060537 | 53 | 115 | 0.0 | 0.0 | 0.00 | 0.10 | 0.10 | 88 | 1003.5 |